Location: �terpigny
(49.8910°N, 2.9249°E)
Time: 06:49:49
(UTC+00:00)

Cosmos 1908 - Pass Details

Date: 02 June 2022
Orbit: 505 x 523 km, 82.5° (Epoch: 03 July)

Event Time Altitude Azimuth Distance (km) Brightness Sun altitude
Rises 21:42:44 0° 4° (N) 2,623 7.8 -12.8°
Reaches altitude 10° 21:45:36 10° 28° (NNE) 1,732 6.3 -13.0°
Maximum altitude 21:47:55 15° 66° (ENE) 1,420 5.4 -13.2°
Enters shadow 21:50:05 11° 102° (ESE) 1,692 5.4 -13.4°
